Regional Weather Roundup
Issued by NWS

Home | Current Version | Previous Version | Graphics & Text | Print | Product List | Glossary Off
Versions: 1 2 3 4 5 6 7 8 9 10 11 12 13 14 15 16 17 18 19 20 21 22 23 24 25 26 27 28 29 30 31 32 33 34 35 36 37 38 39 40 41 42 43 44 45 46 47 48 49 50

000
ASUS43 KMKX 230400
RWRWI

WISCONSIN REGIONAL WEATHER ROUNDUP
NATIONAL WEATHER SERVICE MILWAUKEE/SULLIVAN WI
1000 PM CST SAT NOV 22 2014

NOTE: "FAIR" INDICATES FEW OR NO CLOUDS BELOW 12,000 FEET WITH NO
SIGNIFICANT WEATHER AND/OR OBSTRUCTIONS TO VISIBILITY.

WIZ001-002-006>008-014>016-023>028-230500-
NORTHWEST WISCONSIN

CITY           SKY/WX    TMP DP  RH WIND       PRES   REMARKS
SUPERIOR ARPT  CLOUDY    34  32  91 SE5       29.59F WCI  30
ASHLAND        CLOUDY    35  32  88 CALM      29.64F
HAYWARD        CLOUDY    35  33  92 S9        29.61F WCI  28
SIREN          CLOUDY    35  34  96 S10       29.58F FOG     WCI  27
CUMBERLAND     FOG       34  32  93 SE7       29.61S VSB 1/2 WCI  28
RICE LAKE      FOG       35  34  97 SE7       29.64S VSB 1/4 WCI  29
CHETEK         FOG       35  35 100 SE8       29.63S VSB 3/4 WCI  28
LADYSMITH      FOG       36  35  97 SE5       29.66F VSB 1   WCI  32
EAU CLAIRE     NOT AVBL
MENOMONIE      FOG       35  35  98 E7        29.63F VSB 1/4 WCI  30
NEW RICHMOND   FOG       36  36 100 SE6       29.59F VSB 1/2 WCI  31
OSCEOLA        FOG       36  36 100 SE9       29.60F VSB 1   WCI  29
$$

WIZ003>005-009-010-017-018-230500-
NORTH CENTRAL WISCONSIN

CITY           SKY/WX    TMP DP  RH WIND       PRES   REMARKS
MANITOWISH WTR CLOUDY    33  33 100 S7        29.65F FOG     WCI  26
ARBOR VITAE    CLOUDY    37  35  95 S9        29.66F FOG     WCI  30
WOODRUFF       CLOUDY    37  35  95 S9        29.66F FOG     WCI  30
RHINELANDER    CLOUDY    34  33  96 S9        29.68F FOG     WCI  27
EAGLE RIVER    CLOUDY    34  34 100 S5        29.67S FOG     WCI  30
LAND O LAKES   CLOUDY    34  33  99 S5        29.67F FOG     WCI  30
PHILLIPS       CLOUDY    33  33  99 S9        29.65F FOG     WCI  26
TOMAHAWK       CLOUDY    34  33  96 CALM      29.68F FOG
MEDFORD        FOG       34  34  99 SE5       29.67F VSB 1/4 WCI  30
MERRILL        FOG       35  35 100 SE3       29.69F VSB 3/4
$$

WIZ029-030-035-036-043>047-230500-
CENTRAL WISCONSIN

CITY           SKY/WX    TMP DP  RH WIND       PRES   REMARKS
WAUSAU         FOG       35  35 100 CALM      29.68F VSB 1/4
MOSINEE        SNOW      36  36 100 SE7       29.70F VSB 1/4 WCI  30
MARSHFIELD     FOG       37  36  96 S6        29.68F VSB 1/4 WCI  32
STEVENS POINT  FOG       35  35 100 SE3       29.72F VSB 3/4
WAUPACA        FOG       40  38  95 SE5       29.75F VSB 1/2
WAUTOMA        CLOUDY    39  39 100 CALM      29.75S FOG
WISC RAPIDS    CLOUDY    39  37  92 SE5       29.72F
CAMP DOUGLAS   CLOUDY    41  41 100 SE5       29.69F FOG
$$

WIZ011>013-019>022-031-037>040-048>050-230500-
NORTHEAST WISCONSIN

CITY           SKY/WX    TMP DP  RH WIND       PRES   REMARKS
ANTIGO         FOG       33  33 100 S7        29.71F VSB 3/4 WCI  27
SHAWANO        CLOUDY    39  38  94 CALM      29.75F FOG
OCONTO         CLOUDY    37  37 100 SE3       29.76F VSB 1
STURGEON BAY   CLOUDY    39  37  93 S3        29.78F
GREEN BAY      FOG       39  38  96 S3        29.76F VSB 1/2
MANITOWOC      CLOUDY    43  43 100 S6        29.79F FOG
APPLETON       FOG       37  37 100 VRB5      29.76F VSB 1/2 WCI  34
CLINTONVILLE   FOG       36  36 100 S5        29.76S VSB 1/2 WCI  32
OSHKOSH        CLOUDY    41  40  96 S5        29.76S FOG
$$

WIZ032>034-041-042-053>061-230500-
SOUTHWEST WISCONSIN

CITY           SKY/WX    TMP DP  RH WIND       PRES   REMARKS
LA CROSSE      CLOUDY    45  42  89 S13       29.65F FOG
SPARTA         CLOUDY    45  45  97 S6        29.69S FOG
VIROQUA        CLOUDY    45  45 100 S9        29.68F VSB 1/4
BOSCOBEL       CLOUDY    52  50  93 S8        29.71F FOG
PRAIRIE DU CHI CLOUDY    52  49  91 SE5       29.70F FOG
PLATTEVILLE    CLOUDY    50  49  97 S13       29.75F
$$

WIZ056-057-062-063-064-067-068-230500-
SOUTH CENTRAL WISCONSIN

CITY           SKY/WX    TMP DP  RH WIND       PRES   REMARKS
REEDSBURG      CLOUDY    47  46  99 S8        29.72F FOG
BARABOO/DELLS  CLOUDY    47  45  94 S9        29.73S FOG
LONE ROCK      NOT AVBL
MINERAL POINT  CLOUDY    52  50  93 S12       29.74F FOG
MADISON        CLOUDY    49  46  90 S9        29.76S
MIDDLETON      CLOUDY    50  49  95 S8        29.76S
WATERTOWN      CLOUDY    46  46 100 S6        29.78S FOG
MONROE         CLOUDY    48  46  93 S16       29.77R FOG
JANESVILLE     CLOUDY    50  46  87 S6        29.79S
$$

WIZ051-052-058>065-066-070>072-230500-
SOUTHEAST WISCONSIN

CITY           SKY/WX    TMP DP  RH WIND       PRES   REMARKS
MILWAUKEE      PTCLDY    43  41  93 SW6       29.81S FOG
WAUKESHA       CLOUDY    43  43 100 S6        29.81S FOG
MILWAUKEE/TIMM MOCLDY    46  43  87 SW8       29.81S
RACINE         CLEAR     48  44  86 SW12      29.82F
BURLINGTON     MOCLDY    46  45  95 S12       29.80F
KENOSHA        MOCLDY    49  46  90 SW10      29.81F
FOND DU LAC    CLOUDY    45  42  89 S8        29.76F FOG
SHEBOYGAN      CLOUDY    42  40  92 CALM      29.79R FOG
WEST BEND      CLOUDY    43  41  93 S5        29.79R FOG
JUNEAU         CLOUDY    45  44  97 S8        29.78S FOG
$$

LSZ147-162-230500-
LAKE SUPERIOR

STATION/POSITION TIME  TEMP    WIND        PRES    WAVE
                       AIR SEA DIR/SP/G            HT/PER
                 (UTC) (F)     (DEG/KT/KT) (MB)    (FT/S)
DEVILS ISLAND    0300   35     170/  6/  9 1004.6F
PORT WING        0300   36     150/  2/  9 1004.1R
SAXON HARBOR     0300   33        CALM     1004.4
$$

LMZ867-665-643>646-230500-
LAKE MICHIGAN

STATION/POSITION TIME  TEMP    WIND        PRES    WAVE
                       AIR SEA DIR/SP/G            HT/PER
                 (UTC) (F)     (DEG/KT/KT) (MB)    (FT/S)
CHAMBERS ISLAND  0300   38     200/  7/ 13 1008.8
N MID LAKE BUOY  0250   41 42  230/ 14/ 16 1008.6R   4/ 6
NORTHPORT PIER   0300   38     220/  4/  8 1008.5R
SISTER BAY       0313          250/  9/ 11   N/A
KEWAUNEE LAKESHO 0300   38     220/  4/  6 1008.0S
SHEBOYGAN LAKESH 0300   43 36  160/ 10/ 10 1009.3F
PORT WASHINGTON  0300   40      CALM  /  1 1009.8
ATWATER BUOY     0300   46        CALM     1010.4F
MILWAUKEE LAKESH 0300   44     170/  4/  5   N/A
S MID LAKE BUOY  0250   46 42  190/ 16/ 19 1010.8F   3/ 4
KENOSHA   LAKESH 0300   51     210/ 10/ 15 1010.2R
$$

TC  - TEMPERATURE IN CELSIUS
VSB - VISIBILITY IN STATUTE MILES
WCI - WIND CHILL INDEX
HX  - HEAT INDEX



USA.gov is the U.S. government's official web portal to all federal, state and local government web resources and services.